Regional Weather Roundup
Issued by NWS

Home | Current Version | Previous Version | Graphics & Text | Print | Product List | Glossary On
Versions: 1 2 3 4 5 6 7 8 9 10 11 12 13 14 15 16 17 18 19 20 21 22 23 24 25 26 27 28 29 30 31 32 33 34 35 36 37 38 39 40 41 42 43 44 45 46 47 48 49 50
000
ASUS43 KLSX 220957
RWRMO

WEATHER SUMMARY FOR MISSOURI
NATIONAL WEATHER SERVICE SPRINGFIELD MO
400 AM CST WED NOV 22 2017

NOTE: "FAIR" INDICATES FEW OR NO CLOUDS BELOW 12,000 FEET WITH NO
       SIGNIFICANT WEATHER AND/OR OBSTRUCTIONS TO VISIBILITY.
       CURRENT SKY AND/OR WEATHER CONDITIONS ARE NOT AVAILABLE FOR
       CHILLICOTHE AND FARMINGTON.

MOZ001>031-035>038-043-044-053-054-221100-
...NORTHERN AND WESTERN MISSOURI...

CITY           SKY/WX    TMP DP  RH WIND       PRES   REMARKS
KANSAS CTY INT PTCLDY    21  13  71 NW5       30.41S WCI  15
LEE`S SUMMIT   PTCLDY    23  14  68 NW6       30.42S WCI  16
ST JOSEPH      CLOUDY    18  11  74 NE3       30.43S
CHILLICOTHE      N/A     19  14  81 CALM      30.43R

$$
MOZ066>068-077>081-088>096-101>105-221100-
...SOUTHWEST MISSOURI...

CITY           SKY/WX    TMP DP  RH WIND       PRES   REMARKS
SPRINGFIELD    PTCLDY    23  17  78 N7        30.36R WCI  15
JOPLIN         CLOUDY    23  18  81 N7        30.41S WCI  15

$$
MOZ032>034-039>042-045>050-055>058-069>072-221100-
...CENTRAL MISSOURI...

CITY           SKY/WX    TMP DP  RH WIND       PRES   REMARKS
COLUMBIA       NOT AVBL
JEFFERSON CITY CLOUDY    27  16  63 NW6       30.41R WCI  20
ROLLA          CLOUDY    23  16  74 NW7       30.36R WCI  15
SEDALIA        PTCLDY    24  19  81 N8        30.41S WCI  15
WARRENSBURG    CLOUDY    23  16  74 NW3       30.41F

$$
MOZ051-052-059>065-221100-
...EAST CENTRAL MISSOURI...

CITY           SKY/WX    TMP DP  RH WIND       PRES   REMARKS
ST LOUIS INTL  MOCLDY    27  19  72 N9        30.36R WCI  18

$$
MOZ072>076-082>087-097>100-106>115-221100-
...SOUTH CENTRAL AND SOUTHEAST MISSOURI...

CITY           SKY/WX    TMP DP  RH WIND       PRES   REMARKS
CAPE GIRARDEAU CLEAR     29  20  69 N10       30.33R WCI  20
POPLAR BLUFF   CLEAR     32  21  64 N13       30.32R WCI  22
WEST PLAINS    PTCLDY    28  18  66 N7        30.34R WCI  21

$$



USA.gov is the U.S. government's official web portal to all federal, state and local government web resources and services.